Regional Weather Roundup
Issued by NWS

Home | Current Version | Previous Version | Text Only | Print | Product List | Glossary On
Versions: 1 2 3 4 5 6 7 8 9 10 11 12 13 14 15 16 17 18 19 20 21 22 23 24 25 26 27 28
000
ASUS45 KBOI 280510
RWRID

IDAHO REGIONAL WEATHER ROUNDUP
NATIONAL WEATHER SERVICE BOISE ID
1100 PM MDT WED JUL 27 2016

NOTE: "FAIR" INDICATES FEW OR NO CLOUDS BELOW 12000 FEET
WITH NO SIGNIFICANT WEATHER AND/OR OBSTRUCTIONS TO VISIBILITY

IDZ012-014-280600-
SOUTHWEST IDAHO


CITY           SKY/WX    TMP DP  RH WIND       PRES   REMARKS
BOISE          CLEAR     84  46  26 W5        29.95R
CALDWELL       CLEAR     80  49  33 NW6       29.93R
MOUNTAIN HOME  CLEAR     83  43  24 NW8       29.96R
$$

IDZ016-017-280600-
SOUTHCENTRAL IDAHO


CITY           SKY/WX    TMP DP  RH WIND       PRES   REMARKS
BURLEY         CLEAR     68  56  65 SE5       30.03R
JEROME         CLEAR     81  42  25 W3        30.03R
TWIN FALLS     CLEAR     76  42  29 SW8       30.04R
$$

IDZ019>023-280600-
SOUTHEAST IDAHO


CITY           SKY/WX    TMP DP  RH WIND       PRES   REMARKS
IDAHO FALLS    CLEAR     75  39  27 SW9       30.06R
POCATELLO      CLEAR     77  31  18 SW7       30.06R
REXBURG        CLEAR     69  45  41 N10       30.08R
$$

IDZ006-010-011-018-031-032-280600-
CENTRAL IDAHO MOUNTAINS


CITY           SKY/WX    TMP DP  RH WIND       PRES   REMARKS
MCCALL         CLEAR     70  47  43 N3        30.18R
HAILEY         CLEAR     70  39  32 W12         N/A
STANLEY          N/A     58  34  40 S7        30.28R
SALMON         CLEAR     70  43  37 SE6       30.06R
CHALLIS        CLEAR     73  36  25 NW6       30.14R
$$

IDZ002-004-006-007-026-280600-
NORTHERN IDAHO


CITY           SKY/WX    TMP DP  RH WIND       PRES   REMARKS
LEWISTON       CLEAR     83  51  33 S7        29.97R
LOWELL           N/A     70  60  70 CALM      30.00R
COEUR D`ALENE  CLEAR     73  57  56 SE6       30.02R
MULLAN PASS    CLEAR     65  44  46 NW5       30.28S
$$




USA.gov is the U.S. government's official web portal to all federal, state and local government web resources and services.